This is the latest recevied weather packets stored in our database for station/object CA3VLN-10. If no packets are shown the sender has not sent any weather packets the latest 10 day(s).
| Time | Temp. | Humidity | Pressure | Rain* | Wind** | Luminosity | Snow |
|---|---|---|---|---|---|---|---|
| 1777588350 | 21.67° C | 44% | 1002.9 hPa | - | - | - | - |
| 1777587450 | 22.22° C | 43% | 1002.9 hPa | - | - | - | - |
| 1777586549 | 22.78° C | 42% | 1002.6 hPa | - | - | - | - |
| 1777585649 | 23.33° C | 41% | 1002.4 hPa | - | - | - | - |
| 1777584749 | 23.89° C | 40% | 1002.3 hPa | - | - | - | - |
| 1777583849 | 23.89° C | 40% | 1002 hPa | - | - | - | - |
| 1777582949 | 24.44° C | 39% | 1001.9 hPa | - | - | - | - |
| 1777582049 | 24.44° C | 39% | 1001.6 hPa | - | - | - | - |
| 1777581149 | 25° C | 38% | 1001.6 hPa | - | - | - | - |
| 1777580249 | 25.56° C | 36% | 1001.5 hPa | - | - | - | - |
| 1777579349 | 25.56° C | 36% | 1001.5 hPa | - | - | - | - |
| 1777578449 | 26.11° C | 35% | 1001.4 hPa | - | - | - | - |
| 1777577548 | 26.11° C | 34% | 1001.3 hPa | - | - | - | - |
| 1777576648 | 26.11° C | 34% | 1001.2 hPa | - | - | - | - |
| 1777575748 | 26.11° C | 34% | 1001.3 hPa | - | - | - | - |
| 1777574848 | 26.11° C | 33% | 1001.3 hPa | - | - | - | - |
| 1777573947 | 26.11° C | 34% | 1001.4 hPa | - | - | - | - |
| 1777573047 | 26.11° C | 34% | 1001.4 hPa | - | - | - | - |
| 1777572147 | 25.56° C | 34% | 1001.5 hPa | - | - | - | - |
| 1777571247 | 25.56° C | 34% | 1001.7 hPa | - | - | - | - |
| 1777570347 | 25.56° C | 34% | 1001.9 hPa | - | - | - | - |
| 1777569735 | 25.56° C | 34% | 1002.1 hPa | - | - | - | - |
| 1777569447 | 25.56° C | 34% | 1002.1 hPa | - | - | - | - |
| 1777568546 | 25° C | 35% | 1002.2 hPa | - | - | - | - |
| 1777567646 | 25° C | 35% | 1002.4 hPa | - | - | - | - |
* Rain since midnight (hover to see other rain measurements)
** Current wind speed in m/s (hover to see current wind gust speed)